Погода в Факеле

Россия / Удмуртская Республика     57°37′50″N   53°01′26″E
темп.,
°C
ветер,
м/с
пор.,
м/с
влажн.,
%
обл.,
%
осадки,
мм/ч
давл.,
гПа
погр.,
м
22 января, сб
сб2201:00−14ююв3797100 0.0 1023141
04:00−16ююв369899 0.0 1023111
07:00−16ююв389998 0.0 1024142
10:00−15ююв399898 0.0 1025203
13:00−11ююв4792100 0.0 1026275
16:00−12юв4994100 0.0 1026247
19:00−12юв41096100 0.0 1027257
22:00−12юв3995100 0.0 1028202
23 января, вс
вс2301:00−11юв31096100 0.0 1028234
04:00−9юв41295100 0.5 1029351
07:00−8юв41091100 0.1 1030299
10:00−8ююв41091100 0.1 1031284
13:00−7ююв4889100 0.0 1033319
16:00−7ююв3792100 0.0 1034285
19:00−8ююв3796100 0.0 1035209
22:00−8ю2796100 0.3 1036260
24 января, пн
пн2401:00−7ююз2696100 0.5 1037237
04:00−8ююз2597100 0.8 1037130
07:00−8ююз2497100 0.2 1037121
10:00−7юз2495100 0.6 1038189
13:00−6зюз2492100 0.3 1038337
16:00−7з119699 0.3 103829
19:00−7з2493100 0.1 1037215
22:00−7з3489100 0.1 1037241
25 января, вт
вт2501:00−9з249499 0.0 1037126
04:00−10зюз2596100 0.1 1036102
07:00−12юз249999 0.0 103549
10:00−9юз359599 0.1 1034254
13:00−7юз3493100 0.1 1033347
16:00−9ююз24945 0.1 103279
19:00−14ю259755 0.0 103172
22:00−15ююз37955 0.0 1031103
26 января, ср
ср2601:00−17ю2594100 0.0 103071
04:00−17ю2594100 0.0 103088
07:00−17ю269481 0.0 102992
10:00−15ююз389554 0.0 1029154
13:00−10ююз369180 0.0 1028248
16:00−10ю249538 0.0 1028100
19:00−14ю379756 0.0 1028115
22:00−16ю249840 0.0 102866